Regional Weather Roundup
Issued by NWS

Home | Current Version | Previous Version | Graphics & Text | Print | Product List | Glossary On
Versions: 1 2 3 4 5 6 7 8 9 10 11 12 13 14 15 16 17 18 19 20 21 22 23 24 25 26 27 28 29 30 31 32 33 34 35 36 37 38 39 40 41 42 43 44 45 46 47 48 49 50
000
ASUS43 KIND 311709
RWRIN

WEATHER ROUNDUP FOR INDIANA
NATIONAL WEATHER SERVICE INDIANAPOLIS IN
100 PM EDT FRI OCT 31 2014

NOTE: "FAIR" INDICATES FEW OR NO CLOUDS BELOW 12,000 FEET WITH NO
SIGNIFICANT WEATHER AND/OR OBSTRUCTIONS TO VISIBILITY.

* - STATION DOES NOT REPORT WEATHER SUCH AS PRECIPITATION OR FOG.

+ - STATION NOT QUALITY CONTROLLED BY THE NATIONAL WEATHER SERVICE.
    USE DATA WITH CAUTION...ESPECIALLY DEWPOINT AND RELATIVE
    HUMIDITY OBSERVATIONS.

INZ001>003-010>013-019-020-311800-
NORTHWEST INDIANA

CITY           SKY/WX    TMP DP  RH WIND       PRES   REMARKS
GARY /AIRPORT/ LGT SNOW  37  32  81 NW29G48   30.11R
KNOX *+        CLOUDY    38  34  88 NW23G32   29.99F
LA PORTE +     LGT RAIN  40  39  95 N28G38    29.98F
MICHIGAN CITY+ RAIN      37  36  93 N26G41    30.01F
MONTICELLO +   FLURRIES  33  33  98 NW10      30.04F WCI  25
RENSSELAER +   PTSUNNY   39  34  81 NW24G33   30.07S
VALPARAISO     LGT SNOW  35  35 100 NW20G35   30.03S FOG     WCI  24

$$

LMZ046-743>745-311800-
SOUTHERN LAKE MICHIGAN

STATION/POSITION TIME  TEMP WIND        PRES
                       AIR  DIR/SP/G
                 (UTC) (F)  (DEG/KT/KT) (MB)
MICHIGAN CITY    1700   41  340/ 46/ 52   N/A

$$

INZ004-005-014>016-021>024-311800-
NORTH CENTRAL INDIANA

CITY           SKY/WX    TMP DP  RH WIND       PRES   REMARKS
GOSHEN         CLOUDY    42  38  85 NW9       29.92F
LOGANSPORT +   LGT RAIN  34  32  93 NW9G18    30.02S WCI  26
PERU/GRISSOM   LGT RAIN  39  39 100 NW20G26   29.99F
ROCHESTER +    LGT RAIN  37  36  93 W10G16    29.98F
SOUTH BEND     LGT RAIN  42  37  82 N24G31    29.95S
WARSAW +       CLOUDY    39  36  87 NW14      29.94F

$$

INZ006>009-017-018-025>027-311800-
NORTHEAST INDIANA

CITY           SKY/WX    TMP DP  RH WIND       PRES   REMARKS
ANGOLA *+        N/A     43  36  75 N9        29.90F
AUBURN +       PTSUNNY   43  36  75 NW9       29.92F
FORT WAYNE     CLOUDY    41  37  86 W6        29.94F
HUNTINGTON +   DRIZZLE  N/A N/A N/A NW10G17   29.95S

$$

INZ028-029-035-036-043>045-051>053-311800-
WEST CENTRAL INDIANA

CITY           SKY/WX    TMP DP  RH WIND       PRES   REMARKS
CRAWFORDSVL +  CLOUDY    37  30  75 NW23      30.06
GREENCASTLE +  CLOUDY    39  32  75 NW10G21   30.06S
LAFAYETTE      CLOUDY    37  33  85 NW13G22   30.07R
TERRE HAUTE    CLOUDY    41  31  67 NW17G28   30.10S

$$

INZ030>032-037>040-046>048-054>057-064-065-311800-
CENTRAL INDIANA

CITY           SKY/WX    TMP DP  RH WIND       PRES   REMARKS
ANDERSON       CLOUDY    41  37  87 NW17G29   29.99S
CP ATTERBURY + LGT RAIN  41  36  81 NW14G23   30.02S
COLUMBUS       CLOUDY    39  37  93 NW14G21   30.02R
FRANKFORT +    CLOUDY    40  35  83 NW16G26   30.05S
GREENWOOD *+   CLOUDY    39  34  81 NW12G17   30.02S
INDIANAPOLIS   PTSUNNY   40  36  86 NW13G22   30.01F
-EAGLE CREEK   CLOUDY    41  35  79 NW17G28   30.02S
KOKOMO *+      CLOUDY    39  34  81 NW22G31   29.99F
MARION +       CLOUDY    40  35  83 NW18G24   29.97F HAZE
MT COMFORT *+  PTSUNNY   41  34  75 NW16      30.00F
SHELBYVILLE    LGT RAIN  41  36  82 N17       29.99F
ZIONSVILLE +   CLOUDY    40  33  76 NW20G26   30.02S

$$

INZ033-034-041-042-049-050-058-059-311800-
EAST CENTRAL INDIANA

CITY           SKY/WX    TMP DP  RH WIND       PRES   REMARKS
MUNCIE         CLOUDY    42  37  82 NW18      29.96F

$$

INZ060-061-067>069-081>083-085>088-311800-
SOUTHWEST INDIANA

CITY           SKY/WX    TMP DP  RH WIND       PRES   REMARKS
EVANSVILLE     CLOUDY    42  28  57 NW12G22   30.12R
HUNTINGBURG *+ CLOUDY    43  36  75 N15G25    30.07F
WASHINGTON +   CLOUDY    41  33  75 NW22G30   30.08S

$$

INZ062-063-066-070>080-084-089>092-311800-
SOUTH CENTRAL AND SOUTHEAST INDIANA

CITY           SKY/WX    TMP DP  RH WIND       PRES   REMARKS
BEDFORD +      DRIZZLE   39  36  87 NW7       30.04S
BLOOMINGTON    LGT RAIN  39  36  89 NW12G22   30.04S
NORTH VERNON + LGT RAIN  41  41 100 NW15G22   29.99
SEYMOUR +      LGT RAIN  43  39  87 NW16      30.01

$$




USA.gov is the U.S. government's official web portal to all federal, state and local government web resources and services.